TimePST,TemperatureF,Dew PointF,Humidity,Sea Level PressureIn,VisibilityMPH,Wind Direction,Wind SpeedMPH,Gust SpeedMPH,PrecipitationIn,Events,Conditions,WindDirDegrees,DateUTC
12:00 AM,41.9,35.6,78,29.99,-9999.0,East,5.8,-,N/A,,Unknown,80,2012-12-13 08:00:00
1:00 AM,41.7,35.6,79,29.99,-9999.0,SE,4.6,-,N/A,,Unknown,130,2012-12-13 09:00:00
2:00 AM,42.3,34.7,75,30.00,-9999.0,East,6.9,-,N/A,,Unknown,90,2012-12-13 10:00:00
3:00 AM,42.4,35.1,75,30.00,-9999.0,East,9.2,-,N/A,,Unknown,80,2012-12-13 11:00:00
4:00 AM,42,36,73,29.99,,East,13.8,,,,,100,2012-12-13 12:00:00
4:00 AM,42.3,36.3,79,29.99,-9999.0,East,13.8,-,N/A,,Unknown,100,2012-12-13 12:00:00
5:00 AM,41.9,36.9,82,29.98,-9999.0,SE,9.2,-,N/A,,Unknown,130,2012-12-13 13:00:00
6:00 AM,41.9,36.7,82,29.97,-9999.0,ESE,15.0,-,N/A,,Unknown,120,2012-12-13 14:00:00
7:00 AM,41.9,37.0,83,29.95,-9999.0,ESE,18.4,-,N/A,,Unknown,120,2012-12-13 15:00:00
8:00 AM,41.7,37.8,86,29.93,-9999.0,ESE,20.7,-,N/A,,Unknown,120,2012-12-13 16:00:00
9:00 AM,42.1,38.3,86,29.91,-9999.0,ESE,21.9,-,N/A,,Unknown,120,2012-12-13 17:00:00
10:00 AM,42,40,88,29.90,,ESE,27.6,,,,,110,2012-12-13 18:00:00
10:00 AM,42.4,39.6,90,29.90,-9999.0,ESE,27.6,-,0.01,,Unknown,110,2012-12-13 18:00:00
11:00 AM,42.6,40.1,91,29.89,-9999.0,ESE,26.5,-,N/A,,Unknown,110,2012-12-13 19:00:00
12:00 PM,42.8,40.6,92,29.86,-9999.0,ESE,25.3,-,0.02,,Unknown,110,2012-12-13 20:00:00
1:00 PM,43.0,40.8,92,29.83,-9999.0,ESE,26.5,-,0.04,,Unknown,110,2012-12-13 21:00:00
2:00 PM,43.0,38.1,83,29.80,-9999.0,ESE,26.5,-,0.02,,Unknown,120,2012-12-13 22:00:00
5:00 PM,42.6,39.9,90,29.76,-9999.0,ESE,27.6,-,0.02,,Unknown,110,2012-12-14 01:00:00
6:00 PM,42.3,39.4,90,29.75,-9999.0,ESE,25.3,-,0.02,,Unknown,120,2012-12-14 02:00:00
7:00 PM,42.3,39.6,90,29.74,-9999.0,ESE,21.9,-,N/A,,Unknown,120,2012-12-14 03:00:00
8:00 PM,41.7,38.3,88,29.73,-9999.0,ESE,18.4,-,0.01,,Unknown,120,2012-12-14 04:00:00
9:00 PM,41.7,38.5,88,29.74,-9999.0,ESE,16.1,-,0.02,,Unknown,120,2012-12-14 05:00:00
10:00 PM,41,39,88,29.74,,ESE,24.2,,,,,110,2012-12-14 06:00:00
10:00 PM,40.8,38.7,92,29.74,-9999.0,ESE,24.2,-,0.02,,Unknown,110,2012-12-14 06:00:00
11:00 PM,40.1,37.8,91,29.76,-9999.0,East,19.6,-,N/A,,Unknown,100,2012-12-14 07:00:00